DW6610 Weather Reports


time (UTC)temp
F
wind
direction
speed
knots
gust
knots
rain 1hr
in
rain 24hr
in
rain mn
in
humidity
%
barometer
mb
20260504203552 82 345 6.1 18.2 0.00 0.00 0.00 39 1011.1
20260504203059 82 20 5.2 11.3 0.00 0.00 0.00 38 1011.2
20260504202552 82 43 4.3 12.2 0.00 0.00 0.00 42 1011.1
20260504202055 82 347 3.5 12.2 0.00 0.00 0.00 42 1011.2
20260504201552 82 301 4.3 11.3 0.00 0.00 0.00 40 1011.3
20260504201052 82 27 4.3 13.0 0.00 0.00 0.00 40 1011.2
20260504200552 82 352 6.1 13.0 0.00 0.00 0.00 40 1011.6
20260504195551 82 50 3.5 11.3 0.00 0.00 0.00 40 1011.6
20260504195052 82 68 4.3 12.2 0.00 0.00 0.00 41 1011.6
20260504194552 82 275 5.2 12.2 0.00 0.00 0.00 41 1011.6
20260504194053 82 89 4.3 10.4 0.00 0.00 0.00 41 1011.8
20260504193552 82 340 3.5 11.3 0.00 0.00 0.00 42 1012.0
20260504193052 82 298 5.2 11.3 0.00 0.00 0.00 41 1012.1
20260504192552 82 71 4.3 10.4 0.00 0.00 0.00 43 1012.2
20260504192052 82 346 3.5 13.0 0.00 0.00 0.00 44 1012.3
20260504191606 82 324 5.2 13.0 0.00 0.00 0.00 41 1012.3
20260504191052 81 88 5.2 17.4 0.00 0.00 0.00 42 1012.3
20260504190554 82 78 5.2 17.4 0.00 0.00 0.00 41 1012.4
20260504190051 82 85 5.2 17.4 0.00 0.00 0.00 40 1012.6
20260504185552 82 55 4.3 14.8 0.00 0.00 0.00 41 1012.5
20260504185052 82 76 5.2 10.4 0.00 0.00 0.00 42 1012.6
20260504184555 82 338 4.3 9.6 0.00 0.00 0.00 41 1012.6
20260504184052 82 98 2.6 11.3 0.00 0.00 0.00 44 1012.6
20260504183552 82 83 3.5 12.2 0.00 0.00 0.00 43 1012.6
20260504183054 81 48 5.2 12.2 0.00 0.00 0.00 43 1012.8
20260504182552 81 286 6.1 12.2 0.00 0.00 0.00 41 1012.8
20260504182051 81 323 4.3 12.2 0.00 0.00 0.00 45 1012.8
20260504181602 81 109 6.1 13.9 0.00 0.00 0.00 42 1012.8
20260504181052 82 64 4.3 13.9 0.00 0.00 0.00 42 1012.9
20260504180553 82 77 5.2 11.3 0.00 0.00 0.00 44 1013.0
20260504180058 81 76 3.5 12.2 0.00 0.00 0.00 45 1012.9
20260504175551 81 92 2.6 12.2 0.00 0.00 0.00 47 1012.9
20260504175051 81 85 4.3 11.3 0.00 0.00 0.00 45 1013.1
20260504174556 81 332 2.6 11.3 0.00 0.00 0.00 45 1013.1
20260504174051 81 313 3.5 11.3 0.00 0.00 0.00 45 1013.2
20260504173552 80 26 5.2 10.4 0.00 0.00 0.00 44 1013.3
20260504173055 80 27 4.3 9.6 0.00 0.00 0.00 44 1013.4
20260504172552 80 41 5.2 14.8 0.00 0.00 0.00 46 1013.5
20260504172049 80 57 5.2 14.8 0.00 0.00 0.00 45 1013.6
20260504171557 81 308 3.5 7.0 0.00 0.00 0.00 44 1013.6
20260504171052 81 331 2.6 7.0 0.00 0.00 0.00 48 1013.6
20260504170552 80 34 1.7 12.2 0.00 0.00 0.00 49 1013.8
20260504160104 78 32 4.3 10.4 0.00 0.00 0.00 49 1014.8
20260504151048 75 99 2.6 7.8 0.00 0.00 0.00 56 1014.8
20260504150552 75 302 2.6 12.2 0.00 0.00 0.00 59 1014.9
20260504141050 72 97 2.6 6.1 0.00 0.00 0.00 62 1015.3
20260504140548 71 115 1.7 6.1 0.00 0.00 0.00 64 1015.1
20260504130550 65 94 0.9 3.5 0.00 0.00 0.00 74 1015.0
20260504120135 58 13 0.9 3.5 0.00 0.00 0.00 81 1014.5
20260504110551 58 82 0.0 1.7 0.00 0.00 0.00 79 1014.0
20260504100551 60 326 0.9 3.5 0.00 0.00 0.00 75 1014.2
20260504081604 60 330 1.7 4.3 0.00 0.00 0.00 71 1014.5
20260504081052 60 52 0.9 4.3 0.00 0.00 0.00 72 1014.6
20260504080551 60 355 1.7 4.3 0.00 0.00 0.00 71 1014.6
20260504050551 58 0 0.0 3.5 0.00 0.00 0.00 70 1016.2
20260504050106 58 37 0.9 3.5 0.00 0.00 0.00 70 1016.0
20260504045553 58 75 0.9 5.2 0.00 0.00 0.00 70 1016.1
20260504045048 58 72 0.0 5.2 0.00 0.00 0.00 70 1016.2
20260504044554 58 16 0.9 2.6 0.00 0.00 0.00 70 1016.1
20260504044048 58 42 0.9 2.6 0.00 0.00 0.00 70 1016.2
20260504043549 58 79 0.9 1.7 0.00 0.00 0.00 70 1016.2
20260504043112 58 94 0.0 1.7 0.00 0.00 0.00 70 1016.2
20260504042553 58 53 0.0 2.6 0.00 0.00 0.00 69 1016.2
20260504042052 58 44 0.0 2.6 0.00 0.00 0.00 69 1016.1
20260504041555 58 53 0.0 2.6 0.00 0.00 0.00 69 1016.2
20260504041051 58 63 0.0 2.6 0.00 0.00 0.00 68 1016.1
20260504040555 58 81 0.0 2.6 0.00 0.00 0.00 68 1016.1
20260504035555 58 44 0.9 2.6 0.00 0.00 0.00 68 1016.3
20260504035051 58 75 0.0 1.7 0.00 0.00 0.00 68 1016.3
20260504034556 58 0 0.0 1.7 0.00 0.00 0.00 68 1016.3
20260504034051 58 62 0.0 1.7 0.00 0.00 0.00 68 1016.4
20260504033548 59 65 0.0 1.7 0.00 0.00 0.00 68 1016.4
20260504033104 59 65 0.0 0.9 0.00 0.00 0.00 68 1016.5
20260504032548 59 0 0.0 1.7 0.00 0.00 0.00 67 1016.5
20260504032048 59 66 0.0 1.7 0.00 0.00 0.00 67 1016.6
20260504031558 59 0 0.0 1.7 0.00 0.00 0.00 66 1016.6
20260504031050 59 0 0.0 0.9 0.00 0.00 0.00 66 1016.6
20260504030548 59 64 0.0 1.7 0.00 0.00 0.00 66 1016.7
20260504030104 60 64 0.0 1.7 0.00 0.00 0.00 65 1016.7
20260504025551 60 0 0.0 0.9 0.00 0.00 0.00 64 1016.7
20260504025049 60 0 0.0 1.7 0.00 0.00 0.00 64 1016.6
20260504024553 60 58 0.0 1.7 0.00 0.00 0.00 63 1016.7
20260504024048 60 51 0.0 1.7 0.00 0.00 0.00 63 1016.5
20260504023548 60 0 0.0 1.7 0.00 0.00 0.00 63 1016.5
20260504023054 61 0 0.0 2.6 0.00 0.00 0.00 62 1016.5
20260504022552 61 0 0.0 2.6 0.00 0.00 0.00 62 1016.5
20260504022052 61 0 0.0 2.6 0.00 0.00 0.00 61 1016.5
20260504021556 61 70 0.0 1.7 0.00 0.00 0.00 61 1016.4
20260504021051 61 82 0.0 1.7 0.00 0.00 0.00 61 1016.4
20260504020554 61 74 0.0 1.7 0.00 0.00 0.00 61 1016.2
20260504020105 61 0 0.0 1.7 0.00 0.00 0.00 61 1016.4
20260504015549 61 0 0.0 0.9 0.00 0.00 0.00 60 1016.3
20260504015052 62 0 0.0 0.9 0.00 0.00 0.00 59 1016.2
20260504014605 62 61 0.0 0.9 0.00 0.00 0.00 59 1016.2
20260504014051 62 62 0.0 0.9 0.00 0.00 0.00 58 1016.1
20260504013554 62 62 0.0 0.9 0.00 0.00 0.00 57 1016.1
20260504013059 63 0 0.0 0.9 0.00 0.00 0.00 57 1016.0
20260504012550 63 0 0.0 0.9 0.00 0.00 0.00 56 1016.0
20260504012048 63 0 0.0 0.9 0.00 0.00 0.00 55 1016.1
20260504011554 64 61 0.0 0.9 0.00 0.00 0.00 54 1016.1
20260504011048 64 0 0.0 0.9 0.00 0.00 0.00 53 1016.0
20260504010548 65 0 0.0 0.9 0.00 0.00 0.00 52 1016.0
20260504010100 65 0 0.0 0.9 0.00 0.00 0.00 51 1016.0
20260504005549 66 60 0.0 0.9 0.00 0.00 0.00 50 1016.0
20260504005050 67 60 0.0 0.9 0.00 0.00 0.00 49 1016.1
20260504004554 67 0 0.0 0.9 0.00 0.00 0.00 48 1016.1
20260504004051 68 0 0.0 0.9 0.00 0.00 0.00 47 1016.1
20260504003551 69 60 0.0 2.6 0.00 0.00 0.00 45 1016.1
20260504003058 69 59 0.0 2.6 0.00 0.00 0.00 45 1016.1
20260504002551 70 64 0.9 2.6 0.00 0.00 0.00 44 1016.1
20260504002051 70 50 0.9 2.6 0.00 0.00 0.00 43 1016.1
20260504001601 71 75 0.9 4.3 0.00 0.00 0.00 42 1016.0
20260504001049 71 64 0.9 4.3 0.00 0.00 0.00 41 1016.0
20260504000548 72 93 0.0 5.2 0.00 0.00 0.00 40 1016.0
20260504000104 72 360 1.7 5.2 0.00 0.00 0.00 39 1016.1
20260503235553 73 98 1.7 4.3 0.00 0.00 0.00 39 1016.2
20260503235053 74 79 0.9 4.3 0.00 0.00 0.00 37 1016.2
20260503234555 75 75 1.7 4.3 0.00 0.00 0.00 36 1016.1
20260503234048 75 15 1.7 3.5 0.00 0.00 0.00 36 1016.2
20260503233553 75 84 0.0 3.5 0.00 0.00 0.00 37 1016.4
20260503233055 75 51 0.9 7.0 0.00 0.00 0.00 35 1016.4
20260503232555 75 6 0.9 7.0 0.00 0.00 0.00 36 1016.5
20260503232051 75 51 1.7 8.7 0.00 0.00 0.00 35 1016.5
20260503231556 75 25 1.7 8.7 0.00 0.00 0.00 35 1016.4
20260503231049 75 352 0.9 7.0 0.00 0.00 0.00 35 1016.5
20260503230549 75 318 2.6 7.0 0.00 0.00 0.00 32 1016.6
20260503230110 76 70 1.7 8.7 0.00 0.00 0.00 32 1016.6
20260503225548 76 21 2.6 8.7 0.00 0.00 0.00 33 1016.6
20260503225048 76 72 1.7 8.7 0.00 0.00 0.00 33 1016.7
20260503224554 76 43 0.9 7.0 0.00 0.00 0.00 33 1016.8
20260503224048 76 290 2.6 9.6 0.00 0.00 0.00 32 1016.9
20260503223552 76 63 3.5 9.6 0.00 0.00 0.00 32 1017.0
20260503223112 76 78 1.7 7.0 0.00 0.00 0.00 34 1017.1
20260503222551 77 73 0.9 7.0 0.00 0.00 0.00 34 1017.1
20260503222051 77 101 3.5 7.0 0.00 0.00 0.00 31 1017.1
20260503221555 77 297 1.7 6.1 0.00 0.00 0.00 32 1017.2
20260503221052 78 70 1.7 11.3 0.00 0.00 0.00 33 1017.2
20260503220548 77 84 0.9 11.3 0.00 0.00 0.00 34 1017.3
20260503220058 77 65 1.7 6.1 0.00 0.00 0.00 32 1017.3
20260503215548 77 71 1.7 5.2 0.00 0.00 0.00 32 1017.3
20260503215048 77 84 1.7 6.1 0.00 0.00 0.00 33 1017.4
20260503214557 77 140 1.7 6.1 0.00 0.00 0.00 32 1017.5
20260503214048 77 37 1.7 6.1 0.00 0.00 0.00 32 1017.5
20260503213551 77 19 2.6 6.1 0.00 0.00 0.00 32 1017.6
20260503213053 77 96 1.7 6.1 0.00 0.00 0.00 34 1017.6
20260503212552 78 98 1.7 4.3 0.00 0.00 0.00 33 1017.6
20260503212051 77 51 1.7 5.2 0.00 0.00 0.00 31 1017.7
20260503211552 77 77 1.7 7.0 0.00 0.00 0.00 34 1018.0
20260503211050 77 156 2.6 7.0 0.00 0.00 0.00 34 1018.0
20260503210550 77 32 1.7 5.2 0.00 0.00 0.00 32 1018.0
20260503210055 77 79 2.6 7.0 0.00 0.00 0.00 37 1018.2
20260503205550 77 108 1.7 7.0 0.00 0.00 0.00 36 1018.1
20260503205050 77 74 1.7 5.2 0.00 0.00 0.00 34 1018.2
20260503204555 77 62 0.9 5.2 0.00 0.00 0.00 39 1018.2
20260503204050 76 84 2.6 5.2 0.00 0.00 0.00 34 1018.2